Hourly Data Report for August 01, 2017

PITT MEADOWS CS
BRITISH COLUMBIA

49°12'29.964" N
122°41'24.076" W
5.00 m
1106178
71775
WMM

Download Data

Hourly Data (August 2017)
Hourly Data Report for August 1, 2017
TIME
LST
Temp Definition
°C
Dew Point Definition
°C
Rel Hum Definition
%
Precip. Amount Definition
mm

Wind Dir Definition
10's deg

Wind Spd Definition
km/h
Visibility Definition
km
Stn Press Definition
kPa
Hmdx Definition


Wind Chill Definition


Weather Definition


00:00 17.2 13.6 79 0.0 20 2   102.07     LegendNANA
01:00 16.3 13.8 85 0.0 36 2   102.08     LegendNANA
02:00 16.1 13.5 85 0.0 0 1   102.08     LegendNANA
03:00 15.2 13.3 88 0.0   0   102.08     LegendNANA
04:00 15.0 13.6 91 0.0   0   102.10     LegendNANA
05:00 15.0 13.7 92 0.0 26 1   102.14     LegendNANA
06:00 15.7 13.9 89 0.0 10 4   102.13     LegendNANA
07:00 17.2 14.2 82 0.0 12 1   102.16     LegendNANA
08:00 19.0 14.2 74 0.0 0 1   102.15     LegendNANA
09:00 21.0 14.1 65 0.0 0 1   102.11     LegendNANA
10:00 22.8 14.3 58 0.0 29 3   102.11 26   LegendNANA
11:00 24.2 14.6 55 0.0 25 6   102.07 28   LegendNANA
12:00 26.1 14.6 49 0.0 24 7   102.00 30   LegendNANA
13:00 28.6 15.1 44 0.0 27 8   101.94 33   LegendNANA
14:00 29.4 14.7 41 0.0 27 10   101.90 33   LegendNANA
15:00 29.4 12.9 36 0.0 27 10   101.84 32   LegendNANA
16:00 29.5 13.5 37 0.0 26 11   101.78 33   LegendNANA
17:00 29.0 14.4 41 0.0 26 9   101.72 33   LegendNANA
18:00 27.5 15.2 47 0.0 21 5   101.69 32   LegendNANA
19:00 25.3 15.1 53 0.0 14 3   101.68 29   LegendNANA
20:00 22.9 14.7 60 0.0 14 3   101.69 27   LegendNANA
21:00 21.0 14.6 67 0.0 13 2   101.72 25   LegendNANA
22:00 19.8 16.0 79 0.0   0   101.73     LegendNANA
23:00 18.6 15.2 81 0.0 0 1   101.76     LegendNANA

Notes on Data Quality.

Legend

  • E = Estimated
  • M = Missing
  • NA = Not Available*
  • [empty] = Indicates an unobserved value
Date modified: